Terug naar catalogus

STARLINK-37208

ActiefCommunicatieVLEO
NORAD 68523·PAYLOAD·🇺🇸 United States

Gelanceerd Mar 30, 2026 vanaf Cape Canaveral Space Force Station

Loading…

Volgende Passages (komende 24 uur)

TLE

VersSource: CelesTrak SupGP

Epoch: Sep 15, 2026, 04:12 UTC

1 68523C 26068R   26258.17548611  .00040967  00000+0  12100-2 0  2581
2 68523  53.1591 324.3006 0001232  87.6079 283.7459 15.34380439    12

Volg STARLINK-37208 in realtime met AllMySat

Download on the App Store